Weather History for Falls City, NE

Change the Weather History Date:

Wednesday, February 13, 2013

  Actual Average Record
Temperature  
Mean Temperature 40 °F -  
Max Temperature 55 °F 41 °F 73 °F (1990)
Min Temperature 24 °F 19 °F -6 °F (1986)
Degree Days  
Heating Degree Days 26    
Moisture  
Dew Point 23 °F    
Average Humidity 57    
Maximum Humidity 81    
Minimum Humidity 31    
Precipitation  
Precipitation 0.00 in - - ()
Sea Level Pressure  
Sea Level Pressure 29.85 in    
Wind  
Wind Speed 8 mph (West)    
Max Wind Speed 13 mph    
Max Gust Speed 18 mph    
Visibility 10 miles    
Events      
Averages and records for this station are not official NWS values.
T = Trace of Precipitation, MM = Missing Value Source: NWS Daily Summary

Daily Weather History Graph

Daily Weather History Graph

Search for Another Location

Airport:

Trip Planner

Search our weather history database for the weather conditions in past years. The results will help you decide how hot, cold, wet, or windy it might be!

Date:

Astronomy

Feb. 13, 2013 Rise Set
Actual Time 7:17 AM CST 5:56 PM CST
Civil Twilight 6:49 AM CST 6:24 PM CST
Nautical Twilight 6:17 AM CST 6:55 PM CST
Astronomical Twilight 5:46 AM CST 7:27 PM CST
Moon 8:47 AM CST (2/13) 10:00 PM CST (2/13)
Length of Visible Light 11h 34m
Length of Day
10h 38m
Waxing Crescent, 14% of the Moon is Illuminated
Feb 13
Waxing Crescent
Feb 17
First Quarter
Feb 25
Full
Mar 4
Last Quarter
Mar 11
New

Hourly Weather History & Observations

Time (CST) Temp. Windchill Dew Point Humidity Pressure Visibility Wind Dir Wind Speed Gust Speed Precip Events Conditions
12:53 AM 28.9 °F 21.1 °F 21.9 °F 75% 29.94 in 10.0 mi West 8.1 mph - N/A   Clear
1:53 AM 24.8 °F 17.9 °F 19.4 °F 80% 29.91 in 10.0 mi West 5.8 mph - N/A   Clear
2:53 AM 26.1 °F 18.4 °F 19.9 °F 78% 29.92 in 10.0 mi WNW 6.9 mph - N/A   Clear
3:53 AM 25.0 °F 17.1 °F 19.0 °F 78% 29.91 in 10.0 mi West 6.9 mph - N/A   Clear
4:53 AM 27.0 °F 18.0 °F 19.9 °F 75% 29.90 in 10.0 mi West 9.2 mph - N/A   Clear
5:53 AM 24.1 °F 15.2 °F 19.0 °F 81% 29.90 in 10.0 mi West 8.1 mph - N/A   Clear
6:53 AM 24.1 °F - 19.0 °F 81% 29.89 in 10.0 mi Calm Calm - N/A   Clear
7:53 AM 28.4 °F 19.1 °F 21.2 °F 74% 29.88 in 10.0 mi West 10.4 mph - N/A   Clear
8:53 AM 33.1 °F 24.9 °F 24.1 °F 70% 29.90 in 10.0 mi WNW 10.4 mph - N/A   Clear
9:53 AM 37.9 °F 30.0 °F 26.1 °F 62% 29.90 in 10.0 mi WNW 12.7 mph - N/A   Clear
10:53 AM 42.1 °F 37.1 °F 27.0 °F 55% 29.89 in 10.0 mi WNW 8.1 mph - N/A   Clear
11:53 AM 48.9 °F - 27.0 °F 43% 29.87 in 10.0 mi West 9.2 mph - N/A   Clear
12:53 PM 53.1 °F - 25.0 °F 34% 29.83 in 10.0 mi West 5.8 mph 18.4 mph N/A   Clear
1:53 PM 55.9 °F - 26.1 °F 32% 29.81 in 10.0 mi West 9.2 mph - N/A   Clear
2:53 PM 55.0 °F - 25.0 °F 31% 29.79 in 10.0 mi WSW 8.1 mph - N/A   Clear
3:53 PM 55.0 °F - 25.0 °F 31% 29.79 in 10.0 mi West 11.5 mph - N/A   Clear
4:53 PM 53.1 °F - 24.1 °F 32% 29.78 in 10.0 mi West 11.5 mph - N/A   Clear
5:53 PM 48.0 °F - 24.1 °F 39% 29.79 in 10.0 mi West 8.1 mph - N/A   Clear
6:53 PM 45.0 °F 41.8 °F 24.1 °F 44% 29.79 in 10.0 mi SW 5.8 mph - N/A   Clear
7:53 PM 42.1 °F 36.6 °F 23.0 °F 47% 29.80 in 10.0 mi SW 9.2 mph - N/A   Clear
8:53 PM 42.1 °F 36.6 °F 24.1 °F 49% 29.79 in 10.0 mi SW 9.2 mph - N/A   Partly Cloudy
9:53 PM 41.0 °F 34.7 °F 25.0 °F 53% 29.79 in 10.0 mi West 10.4 mph - N/A   Clear
10:53 PM 37.0 °F 32.4 °F 25.0 °F 62% 29.81 in 10.0 mi West 5.8 mph - N/A   Clear
11:53 PM 36.0 °F 30.3 °F 25.0 °F 64% 29.81 in 10.0 mi WNW 6.9 mph - N/A   Clear